Location: Krakow
(50.0830°N, 19.9170°E)
Time: 18:30:48
(UTC+01:00)

SR - Pass Details

Date: 16 February 2023
Orbit: 582 x 867 km, 66.7° (Epoch: 20 March)

Event Time Altitude Azimuth Distance (km) Brightness Sun altitude
Rises 11:29:41 0° 216° (SW) 3,154 ? 27.3°
Reaches altitude 10° 11:32:08 10° 217° (SW) 2,189 ? 27.4°
Maximum altitude 11:37:05 86° 305° (NW) 679 ? 27.5°
Drops below altitude 10° 11:41:41 10° 36° (NE) 2,029 ? 27.5°
Sets 11:43:53 0° 37° (NE) 2,906 ? 27.5°
